Regional Weather Roundup
Issued by NWS

Home | Current Version | Previous Version | Text Only | Print | Product List | Glossary On
Versions: 1 2 3 4 5 6 7 8 9 10 11 12 13 14 15 16 17 18 19 20 21 22 23 24 25 26 27 28 29 30 31 32 33 34 35 36 37 38 39 40 41 42 43 44 45 46 47 48 49 50
000
ASUS45 KBOI 211210
RWRID
WEATHER ROUNDUP FOR IDAHO
NATIONAL WEATHER SERVICE BOISE ID
600 AM MDT TUE APR 21 2015

NOTE: "FAIR" INDICATES FEW OR NO CLOUDS BELOW 12000 FEET
WITH NO SIGNIFICANT WEATHER AND/OR OBSTRUCTIONS TO VISIBILITY

IDZ012-014-211300-
SOUTHWEST IDAHO


CITY           SKY/WX    TMP DP  RH WIND       PRES   REMARKS
BOISE          CLEAR     46  32  58 SE5       29.83S
CALDWELL       CLEAR     39  25  56 CALM      29.85R
MOUNTAIN HOME  CLEAR     38  26  62 NW5       29.83S WCI  35
$$

IDZ016-017-211300-
SOUTHCENTRAL IDAHO


CITY           SKY/WX    TMP DP  RH WIND       PRES   REMARKS
BURLEY         CLEAR     41  26  55 S6        29.85S
JEROME         CLEAR     44  24  45 SE5       29.86S
TWIN FALLS     CLEAR     49  23  36 S16       29.86S
$$

IDZ019>023-211300-
SOUTHEAST IDAHO


CITY           SKY/WX    TMP DP  RH WIND       PRES   REMARKS
IDAHO FALLS    CLEAR     42  28  57 CALM      29.89R
POCATELLO      CLEAR     37  28  70 CALM      29.88S
REXBURG        CLOUDY    35  28  75 NE5       29.89S WCI  31
$$

IDZ006-010-011-018-031-032-211300-
CENTRAL IDAHO MOUNTAINS


CITY           SKY/WX    TMP DP  RH WIND       PRES   REMARKS
MCCALL         CLEAR     32  28  85 CALM      29.89S
HAILEY         CLEAR     37  28  70 NW14      29.90F WCI  29
STANLEY          N/A     25  20  81 CALM      29.97F
SALMON         CLEAR     30  25  80 CALM      29.91R
CHALLIS        CLEAR     35  22  58 CALM      29.91S
$$

IDZ002-004-006-007-026-211300-
NORTHERN IDAHO


CITY           SKY/WX    TMP DP  RH WIND       PRES   REMARKS
LEWISTON       CLEAR     48  38  68 CALM      29.85R
LOWELL           N/A     40  37  89 CALM      29.93R
COEUR D`ALENE  CLEAR     39  36  87 E6        29.87R WCI  35
MULLAN PASS    CLEAR     44  28  53 NW5       29.91S
$$



USA.gov is the U.S. government's official web portal to all federal, state and local government web resources and services.